Вернуться в каталог

COSMOS 886 DEB

АктивенLEO
NORAD 9816·DEBRIS·🇷🇺 Russia

Запущен Dec 27, 1976 с Baikonur Cosmodrome

Loading…

Ближайшие Пролёты (ближайшие 24 часа)

TLE

СвежийSource: Space-Track

Эпоха: Sep 13, 2026, 21:36 UTC

1  9816U 76126AC  26256.90043183  .00001780  00000-0  34149-3 0  9995
2  9816  65.7907  72.5859 0573706 343.4804  14.8228 13.95190029419615

Отслеживайте COSMOS 886 DEB в реальном времени с AllMySat

Download on the App Store